Regional Weather Roundup
Issued by NWS Green Bay, WI

Home | Current Version | Previous Version | Text Only | Print | Product List | Glossary On
Versions: 1 2 3 4 5 6 7 8 9 10 11 12 13 14 15 16 17 18 19 20 21 22 23 24 25 26 27 28 29 30 31 32 33 34 35 36 37 38 39 40 41 42 43 44 45 46 47 48 49 50
000
ASUS43 KGRB 010411
RWRGRB

NORTH-CENTRAL AND NORTHEAST WISCONSIN REGIONAL WEATHER ROUNDUP
NATIONAL WEATHER SERVICE GREEN BAY WI
1100 PM CDT TUE JUN 30 2015

WIZ005-009-010>012-018-019-010500-
NORTH CENTRAL WISCONSIN

CITY           SKY/WX    TMP DP  RH WIND       PRES   REMARKS
IRONWOOD       CLEAR     45  45 100 CALM      29.98S
MANITOWISH WTR CLEAR     43  43 100 CALM      30.00R
ARBOR VITAE    CLEAR     45  42  91 N3        29.99S
EAGLE RIVER    CLEAR     43  43 100 CALM      29.97F
LAND O LAKES   CLEAR     42  41  98 CALM      29.99F
RHINELANDER    CLEAR     48  44  86 CALM      29.99S
PHILLIPS       CLEAR     46  45  97 CALM      29.99F
ANTIGO         CLEAR     47  46  93 N3        29.98S
TOMAHAWK       CLEAR     44  41  91 CALM      30.00R
MERRILL        CLEAR     46  45  96 CALM      29.99S
$$

WIZ013-073-010500-
NORTHEAST WISCONSIN

CITY           SKY/WX    TMP DP  RH WIND       PRES   REMARKS
IRON MOUNTAIN  CLEAR     48  43  82 NW8       29.95S
MARINETTE      CLOUDY    54  43  66 N7        29.94R
OCONTO         CLEAR     48  48 100 CALM      29.94F
$$

WIZ017-030-035>037-045-010500-
CENTRAL WISCONSIN

CITY           SKY/WX    TMP DP  RH WIND       PRES   REMARKS
MEDFORD        CLEAR     50  47  92 N3        29.98S
WAUSAU         CLEAR     54  46  74 N6        29.96S
MOSINEE        CLEAR     52  46  82 N6        29.99R
MARSHFIELD     CLEAR     58  44  60 NE8       29.97R
WISC RAPIDS    CLEAR     59  46  62 NE9       29.97R
STEVENS POINT  CLEAR     52  46  80 N3        29.97S
WAUPACA        CLEAR     59  52  77 N6        29.96S
SHAWANO        CLEAR     55  48  77 N5        29.96S
CLINTONVILLE   CLEAR     54  46  76 N7        29.96S
$$

WIZ038-039-048-051-010500-
FOX VALLEY

CITY           SKY/WX    TMP DP  RH WIND       PRES   REMARKS
NWS GREEN BAY  CLEAR     53  49  86 N7        29.96R
APPLETON       PTCLDY    55  48  76 N9        29.96R
OSHKOSH        MOCLDY    61  51  70 N13       29.93R
FOND DU LAC    CLOUDY    63  55  75 NE8       29.93R
$$

WIZ022-050-052-010500-
EAST CENTRAL WISCONSIN

CITY           SKY/WX    TMP DP  RH WIND       PRES   REMARKS
STURGEON BAY   CLOUDY    55  45  67 N13       29.95S
MANITOWOC      CLOUDY    56  54  93 MISG      29.94R
SHEBOYGAN      CLOUDY    54  51  90 NE5       29.94R
$$

LMZ563-521-522-541>543-010500-
LAKESHORE

STATION/POSITION TIME  TEMP    WIND        PRES    VSBY  WAVE
                       AIR SEA DIR/SP/G                  HT/PER
                 (UTC) (F)     (DEG/KT/KT) (MB)    (MI)  (FT/S)
SHEBOYGAN LKSHOR 0400   54      20/ 10/ 11 1013.9R
KEWAUNEE LKSHORE 0300   58     360/ 11/ 15 1013.0R
ALGOMA MARINA    0310          350/  6/  9   N/A
NORTHPORT PIER   0300   54     340/ 16/ 19 1013.5R
N MID LAKE BUOY  0350   46 41  320/ 10/ 10 1012.8F         3/ 5
CHAMBERS ISLAND  0300   58     330/ 14/ 16 1013.5R
MENOMINEE LKSHOR 0300   56     290/  8/ 10 1014.4R
$$



USA.gov is the U.S. government's official web portal to all federal, state and local government web resources and services.